2023-110A

Last updated on Sat Aug 26 2023 00:02:06 GMT+0000 (Coordinated Universal Time)

1 57488U 23110A 23236.47944470 .00018070 00000+0 32803-3 0 9998 2 57488 51.6432 350.2276 0003866 350.9420 100.7044 15.49631973412388
UTC large
Height (km)
Speed (km/s)
/
Latitude / Longitude
Inclination (degrees)
Orbital Period (minutes)
Azimuth
Elevation
Range (km)
Doppler Factor

Next 0 passes for location: London (51.5072 / 0.1276)

Sorry there are no passes over London.